Regional Weather Roundup
Issued by NWS

Home | Current Version | Previous Version | Graphics & Text | Print | Product List | Glossary On
Versions: 1 2 3 4 5 6 7 8 9 10 11 12 13 14 15 16 17 18 19 20 21 22 23 24 25 26 27 28 29 30 31 32 33 34 35 36 37 38 39 40 41 42 43 44 45 46 47 48 49 50
000
ASUS44 KMEG 231910
RWRTN
TENNESSEE HOURLY STATE WEATHER ROUNDUP
NATIONAL WEATHER SERVICE MEMPHIS TN
200 PM CDT WED AUG 23 2017

TNZ002-004-019-021-049-052-054-088>092-232000-
WEST TENNESSEE

CITY           SKY/WX    TMP DP  RH WIND       PRES   REMARKS
MEMPHIS INTL   CLOUDY    83  68  60 N9        30.02F
NWS MEMPHIS      N/A     82 N/A N/A MISG        N/A
JACKSON        CLOUDY    83  65  54 N9        30.03F
DYERSBURG      CLOUDY    81  62  52 N10       30.04F
SOMERVILLE     SUNNY     82  66  57 N9        30.01F
COVINGTON      SUNNY     79  64  61 NE8       30.04S
BOLIVAR        MOSUNNY   82  66  57 N9        30.01F
PARIS          SUNNY     79  57  47 NE9       30.03F
HUNTINGDON     SUNNY     79  61  53 VRB5      30.02F
LEXINGTON      MOSUNNY   81  63  54 N9        30.02S
SELMER         PTSUNNY   82  66  57 NE10      30.01S
SAVANNAH       MOSUNNY   84  66  54 N9G16     29.99F
$$

TNZ008-025-027-028-033-062-065-066-232000-
NORTH MIDDLE TENNESSEE

CITY           SKY/WX    TMP DP  RH WIND       PRES   REMARKS
NASHVILLE      PTSUNNY   83  58  42 NW9       30.02F
PORTLAND       SUNNY     77  59  53 N7G14     30.02F
CLARKSVILLE    SUNNY     80  56  43 N7        30.03F
SMYRNA         MOSUNNY   82  60  47 N9        30.02F
COOKEVILLE     SUNNY     81  61  50 NW8G14    30.00F
GALLATIN       MOSUNNY   81  57  44 NW10      30.03F
CROSSVILLE     PTSUNNY   77  59  53 NW9       30.04F
$$

TNZ061-075-076-078-094-096-097-232000-
SOUTH MIDDLE TENNESSEE

CITY           SKY/WX    TMP DP  RH WIND       PRES   REMARKS
FAYETTEVILLE   MOSUNNY   82  63  51 NW9G16    30.00F
TULLAHOMA      SUNNY     81  61  50 N8        30.03F
MCMINNVILLE    MOSUNNY   81  64  57 NW9       30.01F
COLUMBIA       MOSUNNY   82  61  47 VRB6G12   29.99F
SHELBYVILLE    MOSUNNY   81  63  54 N7G16     30.00F
$$

TNZ017-018-042-046-047-232000-
NORTHEAST TENNESSEE

CITY           SKY/WX    TMP DP  RH WIND       PRES   REMARKS
TRI CITIES     PTSUNNY   81  63  54 N6        29.97F
ELIZABETHTON   MOSUNNY   82  66  57 W9        29.97F
$$

TNZ012-013-036-069-073-074-232000-
CENTRAL EAST TENNESSEE

CITY           SKY/WX    TMP DP  RH WIND       PRES   REMARKS
KNOXVILLE      MOSUNNY   84  63  49 N9        29.95F
OAK RIDGE      MOSUNNY   87  59  38 NW5       29.97F
DOWNTOWN KNOXV MOSUNNY   86  66  51 VRB5      29.94F
GATLINBURG     SUNNY     88  63  42 W6        29.95F
MORRISTOWN     MOSUNNY   84  63  48 NW6G13    29.96F
JACKSBORO      MOSUNNY   84  61  45 VRB6      30.01F
$$

TNZ083-085-099-232000-
SOUTHEAST TENNESSEE

CITY           SKY/WX    TMP DP  RH WIND       PRES   REMARKS
CHATTANOOGA    MOSUNNY   87  64  46 NW9       29.96F
DAYTON         PTCLDY    88  66  48 W8        29.95F HX  90
$$

SKY/WX REPORTED AS FAIR MEANS FEW OR NO CLOUDS BELOW
12 THOUSAND FEET.




USA.gov is the U.S. government's official web portal to all federal, state and local government web resources and services.